CDT,Max TemperatureF,Mean TemperatureF,Min TemperatureF,Max Dew PointF,MeanDew PointF,Min DewpointF,Max Humidity, Mean Humidity, Min Humidity, Max Sea Level PressureIn, Mean Sea Level PressureIn, Min Sea Level PressureIn, Max VisibilityMiles, Mean VisibilityMiles, Min VisibilityMiles, Max Wind SpeedMPH, Mean Wind SpeedMPH, Max Gust SpeedMPH,PrecipitationIn, CloudCover, Events, WindDirDegrees
2013-5-1,42,34,26,28,22,18,81,63,46,30.61,30.38,30.03,10,10,10,20,14,25,0.00,6,,314
2013-5-2,37,28,21,22,19,18,89,67,50,30.68,30.61,30.51,10,10,10,16,8,22,0.00,5,,350
2013-5-3,44,34,25,22,19,17,75,52,34,30.53,30.38,30.27,10,10,10,13,8,22,0.00,5,,29
2013-5-4,37,35,33,34,32,23,93,87,57,30.28,30.24,30.20,10,9,4,13,8,20,0.13,8,Rain,28
2013-5-5,52,43,35,40,36,34,100,86,62,30.27,30.20,30.12,10,7,0,10,5,,0.00,6,Fog,28
2013-5-6,70,50,30,46,36,28,100,82,42,30.17,30.11,30.04,10,6,0,9,1,,0.00,1,Fog,294
2013-5-7,75,55,37,47,41,36,100,63,29,30.06,30.01,29.94,10,9,2,16,3,23,0.00,0,,187
2013-5-8,73,56,41,52,44,37,93,65,35,30.06,30.01,29.95,10,10,10,17,3,,0.00,4,,339
2013-5-9,57,50,42,42,38,35,79,63,42,30.19,30.13,30.06,10,10,10,17,10,24,0.00,4,,52
2013-5-10,64,47,30,36,29,24,85,52,27,30.22,30.08,29.90,10,10,10,24,8,30,0.00,2,,216
2013-5-11,48,40,33,30,22,13,79,52,28,30.25,30.17,30.07,10,10,10,28,16,38,0.00,4,Snow,331
2013-5-12,55,38,21,21,17,10,78,43,21,30.27,30.20,30.10,10,10,10,14,5,22,0.00,0,,336
2013-5-13,79,59,39,45,31,18,64,40,28,30.09,29.84,29.59,10,10,10,23,10,32,0.00,2,Rain,163
2013-5-14,89,67,45,50,42,31,80,49,16,29.74,29.60,29.47,10,10,8,34,11,44,0.00,1,,252
2013-5-15,79,60,42,43,37,31,89,46,18,29.87,29.82,29.76,10,10,10,22,7,30,0.00,2,,302
2013-5-16,75,59,43,38,33,29,76,38,19,29.96,29.93,29.88,10,10,10,10,3,18,0.00,3,,94
2013-5-17,72,62,53,50,40,28,63,46,30,30.00,29.95,29.92,10,10,10,20,11,25,0.00,5,,109
2013-5-18,73,62,51,63,56,45,100,87,67,29.95,29.86,29.80,10,7,2,12,8,,0.36,7,Rain,132
2013-5-19,75,65,57,64,59,55,100,91,65,29.81,29.68,29.61,10,6,1,16,8,32,0.88,7,Rain,90
2013-5-20,57,54,50,56,53,48,100,95,88,29.62,29.55,29.51,10,6,2,16,11,25,0.83,8,Rain,92
2013-5-21,50,47,44,48,45,42,100,91,80,29.86,29.71,29.62,10,9,2,17,12,23,0.44,8,Rain,50
2013-5-22,69,56,44,46,41,26,96,71,21,30.10,29.91,29.82,10,8,2,18,10,30,0.17,6,Rain,42
2013-5-23,64,54,43,39,29,18,68,42,18,30.34,30.28,30.12,10,10,10,10,7,18,0.00,0,,58
2013-5-24,64,50,37,47,33,25,89,53,22,30.35,30.29,30.21,10,10,10,18,6,24,0.06,3,Rain,148
2013-5-25,69,59,50,48,45,41,89,68,37,30.23,30.20,30.16,10,10,9,23,11,30,0.01,5,Rain,130
2013-5-26,66,57,48,44,38,31,77,52,28,30.21,30.15,30.05,10,10,10,28,10,33,0.00,6,,122
2013-5-27,61,56,52,52,45,39,82,67,58,30.06,29.95,29.83,10,10,10,16,8,23,0.00,8,,118
2013-5-28,66,60,53,55,53,51,96,82,68,29.84,29.74,29.69,10,9,2,12,7,,0.00,7,,158
2013-5-29,69,60,53,59,56,52,100,91,73,29.78,29.72,29.62,10,5,0,15,7,23,0.36,7,Fog-Rain,140
2013-5-30,75,68,60,64,61,57,100,86,55,29.63,29.54,29.47,10,9,2,22,13,29,0.34,7,Rain,124
2013-5-31,64,60,57,61,55,51,96,79,65,29.56,29.47,29.41,10,10,4,24,11,28,0.27,7,Rain,149